SP9MLI-1 Weather Reports


time (UTC)temp
C
wind
direction
speed
KPH
gust
KPH
rain 1hr
cm
rain 24hr
cm
rain mn
cm
humidity
%
barometer
mb
20260508022312 6 168 0.0 0.0 0.00 0.00 0.00 94 1017.0
20260508020813 6 164 0.0 0.0 0.00 0.00 0.00 94 1017.0
20260508015314 6 151 0.0 0.0 0.00 0.00 0.00 94 1017.4
20260508013812 6 184 0.0 0.0 0.00 0.00 0.00 94 1017.4
20260508012314 6 162 0.0 0.0 0.00 0.00 0.00 94 1017.4
20260508010812 6 170 0.0 0.0 0.00 0.00 0.00 95 1017.0
20260508005313 6 175 0.0 0.0 0.00 0.00 0.00 95 1017.4
20260508003812 6 164 0.0 0.0 0.00 0.00 0.00 94 1017.0
20260508002313 6 167 0.0 0.0 0.00 0.00 0.00 95 1017.0
20260508000812 6 165 0.0 0.0 0.00 0.00 0.00 94 1017.0
20260507235313 6 169 0.0 0.0 0.00 0.00 0.00 94 1017.0
20260507233812 6 167 0.0 0.0 0.00 0.00 0.00 93 1016.7
20260507232313 6 353 0.0 0.0 0.00 0.00 0.00 94 1016.7
20260507230812 6 353 0.0 0.0 0.00 0.00 0.00 94 1016.7
20260507225313 6 353 0.0 0.0 0.00 0.00 0.00 94 1016.7
20260507223812 6 353 0.0 0.0 0.00 0.00 0.00 94 1016.7
20260507222313 6 353 0.0 0.0 0.00 0.00 0.00 94 1016.7
20260507220812 6 174 0.0 0.0 0.00 0.00 0.00 94 1017.0
20260507215312 6 169 0.0 0.0 0.00 0.03 0.00 95 1017.0
20260507213812 6 9 0.0 0.0 0.00 0.03 0.00 95 1017.0
20260507212313 6 169 0.0 0.0 0.00 0.03 0.00 95 1017.0
20260507210813 6 164 0.0 0.0 0.00 0.03 0.00 95 1016.7
20260507205312 6 8 0.0 0.0 0.00 0.03 0.00 95 1016.4
20260507203813 6 9 0.0 0.0 0.00 0.03 0.00 94 1016.4
20260507202312 6 168 0.0 0.0 0.00 0.03 0.00 94 1016.0
20260507200812 6 165 0.0 0.0 0.00 0.03 0.00 93 1016.0
20260507193812 7 161 0.0 0.0 0.00 0.03 0.00 89 1015.7
20260507192312 7 161 0.0 0.0 0.00 0.03 0.00 89 1015.7
20260507190812 7 161 0.0 0.0 0.00 0.03 0.00 89 1015.7
20260507185313 7 161 0.0 0.0 0.00 0.03 0.00 89 1015.7
20260507183812 7 178 0.0 0.0 0.00 0.03 0.00 88 1015.4
20260507182407 7 166 0.0 0.0 0.00 0.03 0.00 86 1015.7
20260507182312 7 166 0.0 0.0 0.00 0.03 0.00 86 1015.7
20260507180812 8 166 0.0 0.0 0.00 0.03 0.00 83 1015.7
20260507175312 8 159 0.0 4.8 0.00 0.03 0.00 82 1015.7
20260507173811 8 190 0.0 0.0 0.00 0.03 0.00 82 1015.7
20260507172312 8 159 0.0 4.8 0.00 0.03 0.00 82 1015.4
20260507170811 8 157 0.0 0.0 0.00 0.03 0.00 81 1016.0
20260507165312 8 155 1.6 4.8 0.00 0.03 0.00 81 1015.4
20260507163811 8 150 0.0 0.0 0.00 0.03 0.00 81 1015.7
20260507162312 8 162 0.0 0.0 0.00 0.03 0.00 81 1015.7
20260507160811 8 169 3.2 8.0 0.00 0.03 0.00 80 1015.7
20260507155312 8 212 0.0 0.0 0.00 0.03 0.00 83 1015.4
20260507153811 8 169 0.0 0.0 0.00 0.03 0.00 84 1015.4
20260507152312 8 159 0.0 4.8 0.00 0.03 0.00 85 1015.4
20260507150811 8 151 0.0 4.8 0.00 0.03 0.00 84 1015.0
20260507145312 8 151 0.0 4.8 0.00 0.03 0.00 84 1015.0
20260507143811 8 151 0.0 4.8 0.00 0.03 0.00 84 1015.0
20260507142311 8 151 0.0 4.8 0.00 0.03 0.00 84 1015.0
20260507140813 9 107 6.4 8.0 0.00 0.03 0.00 84 1015.4
20260507135313 10 168 0.0 4.8 0.00 0.03 0.00 84 1015.4
20260507133813 10 177 1.6 4.8 0.00 0.03 0.00 83 1015.4
20260507132313 9 145 3.2 4.8 0.00 0.03 0.00 82 1015.4
20260507130813 9 103 1.6 4.8 0.00 0.03 0.00 85 1015.4
20260507125313 9 133 4.8 8.0 0.00 0.03 0.00 85 1015.4
20260507123812 9 182 3.2 8.0 0.00 0.03 0.00 86 1015.0
20260507122313 10 171 1.6 4.8 0.00 0.03 0.00 84 1015.4
20260507120813 10 185 3.2 4.8 0.00 0.03 0.00 83 1015.4
20260507115313 10 135 6.4 8.0 0.00 0.03 0.00 84 1015.4
20260507113813 11 159 3.2 8.0 0.00 0.03 0.00 83 1015.4
20260507112313 11 172 4.8 4.8 0.00 0.03 0.00 80 1015.4
20260507110812 11 149 1.6 4.8 0.00 0.03 0.00 80 1015.0
20260507105313 11 136 4.8 8.0 0.00 0.03 0.00 81 1015.4
20260507103813 11 153 3.2 8.0 0.00 0.03 0.00 79 1015.0
20260507100812 10 158 4.8 8.0 0.00 0.03 0.00 89 1013.3
20260507095313 10 158 4.8 8.0 0.00 0.03 0.00 89 1013.3
20260507093812 10 158 4.8 8.0 0.00 0.03 0.00 89 1013.3
20260507092312 10 158 4.8 8.0 0.00 0.03 0.00 89 1013.3
20260507090812 10 185 4.8 8.0 0.00 0.03 0.00 87 1013.0
20260507085312 10 208 4.8 8.0 0.00 0.03 0.00 85 1013.0
20260507083812 9 153 1.6 4.8 0.00 0.03 0.00 91 1012.0
20260507082312 8 164 3.2 4.8 0.00 0.03 0.00 91 1012.0
20260507080812 7 155 4.8 8.0 0.00 0.03 0.00 94 1012.0
20260507075312 7 221 0.0 4.8 0.00 0.03 0.00 95 1011.3
20260507073812 6 186 1.6 4.8 0.00 0.03 0.00 97 1010.9
20260507072313 6 164 0.0 0.0 0.00 0.03 0.00 99 1010.9
20260507070812 6 157 1.6 4.8 0.00 0.03 0.00 99 1010.9
20260507065312 5 353 0.0 4.8 0.00 0.03 0.00 99 1010.6
20260507063811 5 162 0.0 0.0 0.00 0.03 0.00 99 1010.3
20260507062312 5 166 1.6 4.8 0.00 0.03 0.00 99 1009.9
20260507060811 5 158 3.2 4.8 0.00 0.03 0.00 99 1009.9
20260507055312 5 1 0.0 0.0 0.00 0.03 0.00 99 1009.9
20260507053811 5 152 0.0 4.8 0.00 0.03 0.00 99 1009.6
20260507052312 5 150 0.0 4.8 0.00 0.03 0.00 99 1009.3
20260507050811 5 155 4.8 8.0 0.00 0.03 0.00 99 1009.3
20260507045312 5 162 0.0 4.8 0.00 0.03 0.00 99 1008.6
20260507043811 5 162 0.0 4.8 0.00 0.03 0.00 99 1008.6
20260507042312 5 162 0.0 4.8 0.00 0.03 0.00 99 1008.6
20260507040812 5 162 0.0 4.8 0.00 0.03 0.00 99 1008.6
20260507035312 5 171 0.0 0.0 0.00 0.03 0.00 99 1008.6
20260507033811 5 165 0.0 0.0 0.00 0.03 0.00 99 1008.6
20260507032312 5 162 0.0 0.0 0.00 0.03 0.00 99 1008.6
20260507030812 5 160 0.0 0.0 0.00 0.03 0.00 99 1008.2
20260507025312 5 159 0.0 4.8 0.00 0.03 0.00 99 1008.6
20260507023811 5 160 3.2 8.0 0.00 0.03 0.00 99 1008.2